This is the latest recevied weather packets stored in our database for station/object DL3CSM-13. If no packets are shown the sender has not sent any weather packets the latest 10 day(s).
| Time | Temp. | Humidity | Pressure | Rain* | Wind** | Luminosity | Snow |
|---|---|---|---|---|---|---|---|
| 1777736711 | 26.11° C | 24% | 1019 hPa | 0 mm | - | - | - |
| 1777734911 | 26.67° C | 23% | 1019.3 hPa | 0 mm | - | - | - |
| 1777734011 | 26.67° C | 23% | 1019.6 hPa | 0 mm | - | - | - |
| 1777731311 | 27.22° C | 23% | 1020 hPa | 0 mm | - | - | - |
| 1777730411 | 27.78° C | 23% | 1020.2 hPa | 0 mm | - | - | - |
| 1777729511 | 27.22° C | 24% | 1020.4 hPa | 0 mm | - | - | - |
| 1777728611 | 26.67° C | 27% | 1020.5 hPa | 0 mm | - | - | - |
| 1777726811 | 26.67° C | 24% | 1020.9 hPa | 0 mm | - | - | - |
| 1777725911 | 26.67° C | 26% | 1021 hPa | 0 mm | - | - | - |
| 1777725011 | 26.11° C | 26% | 1021.3 hPa | 0 mm | - | - | - |
| 1777724111 | 25.56° C | 28% | 1021.5 hPa | 0 mm | - | - | - |
| 1777723211 | 25.56° C | 30% | 1021.8 hPa | 0 mm | - | - | - |
| 1777722311 | 25° C | 30% | 1021.9 hPa | 0 mm | - | - | - |
| 1777721411 | 24.44° C | 30% | 1022.1 hPa | 0 mm | - | - | - |
| 1777720511 | 24.44° C | 31% | 1022.2 hPa | 0 mm | - | - | - |
| 1777718711 | 23.33° C | 35% | 1022.5 hPa | 0 mm | - | - | - |
| 1777717811 | 22.78° C | 35% | 1022.7 hPa | 0 mm | - | - | - |
| 1777716911 | 22.22° C | 35% | 1022.9 hPa | 0 mm | - | - | - |
| 1777715111 | 21.67° C | 37% | 1023.1 hPa | 0 mm | - | - | - |
| 1777714211 | 21.11° C | 39% | 1023.4 hPa | 0 mm | - | - | - |
| 1777713311 | 20.56° C | 40% | 1023.6 hPa | 0 mm | - | - | - |
| 1777712411 | 19.44° C | 40% | 1023.6 hPa | 0 mm | - | - | - |
| 1777711511 | 18.89° C | 42% | 1023.7 hPa | 0 mm | - | - | - |
| 1777710611 | 17.22° C | 47% | 1023.8 hPa | 0 mm | - | - | - |
| 1777707911 | 13.33° C | 55% | 1024 hPa | 0 mm | - | - | - |
* Rain latest hour (hover to see other rain measurements)
** Current wind speed in m/s (hover to see current wind gust speed)